Location: Friaudour
(46.0460°N, 1.2873°E)
Time: 20:42:03
(UTC+00:00)

CZ-2D R/B - Pass Details

Date: 14 July 2020
Orbit: 792 x 844 km, 98.7° (Epoch: 14 August)

Event Time Altitude Azimuth Distance (km) Brightness Sun altitude
Rises 02:19:37 0° 8° (N) 3,347 6.5 -15.4°
Reaches altitude 10° 02:22:02 10° 2° (N) 2,419 5.5 -15.1°
Maximum altitude 02:27:05 44° 292° (WNW) 1,127 2.7 -14.7°
Enters shadow 02:30:27 20° 230° (SW) 1,823 3.3 -14.3°
